Wind_Speed
4 5 3 3 4 5 6 6 7 8 7 7 8 6 6 6 3 5 4 4 4 4 3 5 3 3 3 8 8 0 3 8 8 7 4 2 2 3 6 8 8 6 6 13 19 26 27 23 26 26 22 22 22 22 23 22 21 20 18 19 20 19 18 17 17 16 16 15 13 11 10 9 9 8 8 7 6 5 5 3 2 3 2 1 1 1
3 3 4 5 5 5 6 6 6 8 7 7 7 6 5 4 4 5 4 3 2 3 4 4 2 5 5 8 7 3 6 8 7 7 4 3 3 5 7 9 9 3 4 11 15 21 26 20 20 23 20 20 21 22 23 21 20 19 18 19 19 18 18 17 17 16 15 14 12 11 10 10 9 8 8 7 6 5 5 5 4 4 2 1 1 1
3 0 3 4 5 4 5 5 6 7 7 6 5 5 4 3 4 3 2 2 1 2 3 4 3 6 6 8 8 7 7 5 6 6 3 4 5 6 8 9 10 6 8 11 12 19 26 19 18 19 16 17 19 20 21 19 19 18 17 18 18 18 17 16 16 15 14 11 10 9 9 10 9 8 7 6 6 6 5 6 6 4 3 0 1 1
3 3 2 4 4 6 5 4 5 7 6 4 4 4 3 4 3 1 2 2 2 2 3 3 2 5 5 7 8 8 7 5 7 7 4 4 6 6 7 8 10 8 12 16 8 14 23 20 17 17 15 16 17 18 19 18 18 17 16 17 17 17 17 16 15 15 12 11 10 9 9 10 8 7 8 6 7 6 5 6 6 5 4 1 1 1
4 5 2 3 4 6 7 5 6 6 4 2 2 3 4 4 4 2 3 2 2 1 1 3 1 5 5 6 8 6 6 7 6 6 6 6 7 8 7 8 11 7 10 18 12 8 16 17 16 16 16 16 16 17 17 17 17 15 16 17 18 17 17 16 16 14 13 13 12 9 10 10 8 7 9 7 6 6 6 6 6 5 3 1 0 1
3 4 2 2 3 5 5 4 5 5 4 2 1 3 5 5 5 3 2 3 2 3 3 2 0 4 6 7 7 4 5 6 5 6 8 8 9 10 7 8 9 6 8 17 14 8 11 14 13 13 14 15 16 17 16 15 14 14 16 17 18 17 16 16 17 15 13 13 12 11 12 12 10 9 9 7 5 5 5 5 5 5 3 2 1 1
2 1 4 4 2 3 3 1 3 4 3 2 3 4 5 4 4 3 2 3 1 4 3 2 1 3 5 7 6 5 6 7 7 8 10 9 9 9 7 6 5 5 8 14 14 10 10 11 11 11 12 14 15 16 17 16 13 13 16 18 18 17 16 16 17 16 14 14 13 13 13 12 10 10 9 7 5 4 3 3 4 5 4 3 2 2
2 1 4 6 4 2 1 0 1 3 3 2 4 5 5 4 3 2 3 3 2 3 1 0 2 2 4 5 5 5 6 8 9 11 10 9 10 9 8 7 4 5 8 10 11 12 10 11 11 11 11 13 14 15 16 16 15 14 15 17 17 16 15 16 16 16 16 15 14 14 12 11 10 9 8 7 6 5 3 3 5 6 6 4 3 3
2 3 3 4 3 2 2 2 4 5 4 3 5 6 4 3 2 2 3 2 2 1 2 3 2 1 3 4 4 4 7 9 10 10 10 9 10 9 9 8 5 5 7 7 7 9 11 12 13 13 11 10 11 13 15 15 14 14 13 14 16 15 14 14 14 15 16 14 13 13 12 11 10 8 7 7 6 6 4 4 6 6 6 5 4 4
0 3 5 6 4 2 5 6 7 8 4 4 6 6 2 1 2 3 3 2 1 0 3 4 3 0 3 4 3 4 7 8 7 8 8 8 8 8 9 8 7 5 4 4 4 6 10 13 15 15 12 9 9 10 14 14 11 12 13 13 15 15 12 12 13 14 16 14 12 13 12 11 10 8 7 7 6 5 4 4 5 6 6 5 5 4
1 1 3 5 4 2 5 8 8 9 5 3 6 5 4 4 4 3 2 2 2 2 4 5 4 2 2 4 4 3 4 5 5 6 7 9 8 8 8 8 8 7 5 5 5 5 10 14 15 14 12 11 11 11 13 13 10 12 13 12 14 13 11 13 16 15 14 14 13 13 13 11 10 9 8 7 6 6 4 3 4 6 6 5 5 4
4 3 1 1 2 3 3 6 6 8 8 5 3 4 3 4 3 4 3 3 2 3 5 4 4 4 2 5 5 4 5 5 5 5 7 8 7 8 8 8 9 9 7 7 8 8 10 12 12 12 12 12 13 15 15 14 13 12 12 13 13 13 12 13 17 17 13 13 13 13 13 12 10 9 8 7 6 5 4 4 4 5 6 5 5 5
3 3 2 0 3 4 3 2 4 6 7 6 2 2 2 2 3 3 2 1 1 4 4 4 3 3 4 5 6 6 6 6 5 4 6 7 7 7 8 8 9 9 8 7 7 8 9 10 11 12 12 11 13 16 15 14 14 12 12 14 13 13 12 12 15 16 14 13 13 13 13 11 10 9 8 6 6 5 4 4 5 5 5 5 5 4
2 4 2 0 1 2 5 3 0 2 4 1 1 3 1 1 1 3 3 1 3 4 5 5 4 1 3 4 6 6 6 6 5 5 5 6 7 8 8 8 8 9 9 8 8 8 8 9 12 12 13 11 11 13 13 13 14 13 12 13 14 13 13 14 16 15 13 12 12 12 12 11 10 9 8 6 5 4 5 4 5 6 5 5 5 4
4 2 3 4 3 1 4 5 5 5 5 3 2 4 3 2 1 2 1 1 4 5 6 6 4 2 3 2 3 3 7 7 6 6 6 7 7 8 8 8 8 9 8 7 7 8 8 10 11 12 12 12 12 13 12 11 12 13 12 14 16 15 14 15 15 13 12 12 11 11 11 10 9 8 7 6 5 4 5 5 6 6 6 6 6 5
6 3 4 3 2 3 4 4 5 5 5 4 3 3 3 4 3 2 3 3 2 4 5 4 1 2 2 0 1 3 8 8 7 8 8 8 9 8 8 8 7 7 7 6 7 7 9 11 11 11 12 12 12 13 11 11 11 12 12 13 15 14 13 13 13 12 11 11 10 10 11 11 9 8 7 6 5 6 6 6 5 5 6 6 6 6
6 4 3 2 1 1 4 4 3 3 4 4 4 3 3 4 3 1 3 2 1 3 4 1 2 2 2 2 0 3 9 9 8 9 9 10 10 9 8 7 7 7 6 7 7 8 9 11 12 12 11 11 11 11 11 12 12 12 12 12 13 12 12 12 12 11 10 10 10 10 11 11 11 10 8 6 5 5 6 6 6 6 6 6 7 6
6 4 2 2 1 2 1 3 1 2 3 3 3 3 1 1 1 1 1 2 2 4 4 2 4 3 3 3 2 2 9 9 8 9 10 11 10 9 8 8 8 8 8 8 8 9 9 10 12 11 11 11 10 11 11 12 11 11 11 11 11 11 11 11 11 10 9 9 10 10 11 12 11 10 8 6 6 5 6 7 7 8 8 8 8 7
5 4 3 2 3 3 3 5 1 2 0 2 2 1 1 0 1 2 2 1 3 4 3 3 5 4 4 3 2 3 7 8 7 7 10 11 9 9 9 9 10 9 8 8 8 8 9 10 11 11 10 11 9 9 10 10 10 10 10 10 10 10 10 10 10 10 10 9 9 10 10 11 10 9 7 6 6 6 6 8 8 8 8 9 9 9
4 4 2 1 1 2 3 3 3 2 2 1 0 1 0 2 3 2 1 1 1 3 3 4 4 3 4 4 4 4 6 8 7 6 8 10 8 8 9 9 9 8 7 7 7 8 9 10 11 11 11 11 10 9 9 10 10 10 10 10 9 9 9 10 9 9 9 9 9 9 9 10 9 8 7 6 6 6 7 8 8 7 7 8 9 10
3 3 3 1 3 2 1 2 6 5 2 2 1 1 2 2 3 3 1 2 2 1 3 4 4 4 4 3 4 3 4 7 8 7 7 8 8 8 8 8 8 8 8 7 8 8 9 10 11 11 11 11 10 10 9 9 10 10 10 9 9 9 9 9 9 9 9 9 9 9 9 9 8 8 7 6 6 6 8 9 9 9 8 7 8 9
3 3 5 5 1 1 3 4 5 6 5 3 3 4 4 1 1 1 1 1 1 1 1 3 4 4 3 3 3 3 4 6 7 7 8 8 8 8 8 8 8 8 8 8 8 9 9 11 12 12 12 11 11 10 10 9 10 10 9 9 9 9 9 9 9 9 9 8 8 8 8 8 7 7 7 7 6 7 8 8 8 8 8 7 8 8
3 4 5 5 3 3 4 4 3 4 4 3 4 5 5 2 2 2 3 3 1 1 2 2 4 4 2 2 3 2 3 6 6 6 8 7 7 8 9 9 9 9 9 8 8 8 10 12 13 12 12 11 11 10 10 9 9 9 9 9 9 9 9 9 8 8 7 7 7 7 6 6 5 5 5 5 5 5 6 7 6 6 6 7 7 8
1 3 5 5 2 3 4 3 3 2 4 3 4 6 6 3 3 4 4 2 1 2 1 3 4 3 1 2 4 2 5 8 7 7 9 8 7 8 9 10 10 9 9 8 7 8 11 13 12 11 12 11 11 11 10 10 10 10 10 9 9 10 9 8 8 7 6 6 6 5 4 3 3 3 3 3 3 4 4 4 4 4 5 6 6 7
2 3 5 6 3 2 2 2 3 3 6 4 5 7 6 3 2 2 1 2 1 2 3 2 3 4 3 5 5 4 7 10 9 8 8 8 8 9 9 9 9 10 9 9 9 9 11 11 11 11 12 12 12 11 11 11 11 11 10 10 10 10 9 8 7 7 6 6 6 5 4 3 2 2 2 2 2 3 3 2 3 3 4 4 4 4
3 4 4 5 5 4 4 3 3 5 5 4 6 8 6 3 3 2 1 1 2 1 2 3 5 6 6 8 8 7 8 11 11 10 9 9 10 10 9 9 10 10 11 11 11 11 10 11 12 13 13 12 12 12 11 11 12 11 11 11 10 10 10 9 8 8 7 7 6 6 5 3 2 2 2 1 1 1 0 1 2 2 2 3 3 3
3 2 4 5 6 6 6 6 5 5 5 6 8 9 6 3 5 5 3 4 4 1 2 5 9 10 8 9 10 9 9 10 11 11 10 10 10 10 10 10 10 10 11 11 11 12 12 12 13 14 14 13 13 13 13 13 12 12 13 12 12 11 11 11 10 9 9 8 7 7 6 5 4 3 3 3 2 1 2 1 0 0 1 1 2 2
5 1 4 4 5 5 6 5 4 4 5 7 8 8 7 4 5 5 4 5 5 2 2 7 12 12 9 9 10 10 10 11 11 11 11 10 10 11 11 11 12 12 12 12 12 13 13 13 12 14 15 15 14 14 14 13 13 13 13 13 13 12 12 11 11 12 11 10 9 8 8 7 6 5 5 5 4 4 3 3 2 2 1 1 0 1
5 2 3 3 4 2 3 4 3 3 2 4 7 8 8 6 4 3 3 5 5 3 3 8 12 12 10 11 11 10 10 11 11 11 11 11 11 12 12 12 12 12 12 13 13 13 13 13 12 13 15 15 14 14 14 13 13 13 13 13 13 12 11 12 13 13 12 12 11 10 9 8 8 7 7 7 6 6 5 5 5 4 4 3 2 2
3 2 2 4 5 1 0 2 2 2 1 2 5 8 8 7 6 5 4 5 5 3 6 11 13 12 10 10 11 11 10 11 11 10 11 12 12 13 13 13 12 12 13 13 13 13 13 13 13 14 15 14 13 13 13 12 12 12 12 12 13 12 12 13 14 13 12 12 12 11 10 10 9 9 9 9 8 7 6 6 6 6 6 6 5 4
3 1 1 5 6 2 2 1 2 2 3 2 4 8 9 7 7 6 5 5 4 5 9 12 12 11 9 11 12 11 10 10 10 10 11 11 12 13 14 14 12 12 13 13 13 13 12 12 13 14 14 13 13 12 12 12 11 11 13 13 12 13 13 13 12 11 11 11 11 11 11 10 10 9 9 9 8 8 7 7 6 6 6 6 6 5
3 2 1 4 5 0 2 1 2 3 4 2 5 9 10 7 6 5 5 5 3 6 11 10 8 8 8 11 12 11 11 11 11 10 10 10 11 12 13 13 13 12 13 13 13 13 12 12 12 13 13 13 12 11 11 11 10 11 13 13 13 12 12 11 11 10 9 9 9 9 9 9 9 9 9 8 8 8 7 7 6 6 6 6 7 7
3 3 3 3 4 2 1 2 3 4 3 1 5 8 9 7 6 5 5 6 3 6 7 5 5 8 10 12 13 13 12 12 11 9 9 11 11 11 12 12 13 13 12 12 12 12 11 12 12 13 13 13 12 11 11 11 12 13 13 13 12 10 10 11 11 11 10 9 9 9 8 8 7 8 8 8 8 7 6 7 7 7 7 7 7 7
2 4 3 2 4 3 1 3 5 5 1 2 3 6 7 6 7 6 7 6 3 3 1 1 6 11 12 12 12 13 13 12 10 9 9 9 9 10 11 11 12 12 12 12 11 11 11 12 13 13 13 13 12 12 12 13 13 13 12 11 10 9 10 11 12 12 12 12 11 11 10 9 9 8 8 8 8 8 8 8 8 7 7 7 7 8
3 4 2 2 4 4 3 4 6 3 1 4 4 6 5 4 6 6 7 7 5 4 2 5 10 12 11 10 10 11 12 12 11 10 9 9 8 9 10 10 11 12 12 11 11 11 12 13 13 13 13 12 11 11 12 12 12 11 10 10 10 11 11 12 13 13 13 12 12 12 11 11 10 10 10 9 9 9 9 9 8 8 8 8 8 8
3 3 2 2 3 3 3 4 3 2 4 6 6 7 6 4 5 4 6 8 7 5 2 7 11 9 10 12 11 11 13 13 11 10 10 10 9 10 10 10 11 12 11 11 12 12 13 13 13 12 11 11 11 11 12 11 11 11 11 11 11 11 11 12 12 12 12 12 12 11 11 11 11 10 10 10 10 10 10 9 9 8 8 8 8 8
3 3 3 2 2 3 4 3 1 5 5 4 5 7 6 5 6 5 3 6 8 7 3 8 11 8 9 13 13 13 15 13 10 9 9 10 10 10 11 12 13 14 13 13 14 14 14 13 13 12 12 12 12 12 11 11 11 11 11 11 11 11 10 10 10 11 11 11 11 11 10 10 10 10 10 10 10 10 9 9 8 8 7 7 7 6
2 2 3 2 1 2 4 3 2 3 3 3 5 6 6 4 5 6 3 4 8 9 4 5 11 11 11 13 14 14 14 11 9 8 8 10 11 11 13 14 15 15 15 15 15 14 14 13 13 13 13 13 13 12 11 11 11 11 11 11 10 10 10 9 9 9 9 9 10 10 10 10 10 10 9 9 9 8 8 7 7 6 5 5 5 4
2 2 3 3 2 2 4 4 2 1 2 4 7 7 6 4 3 3 1 2 7 10 7 2 6 11 11 11 14 14 11 9 9 8 8 9 11 11 12 13 15 16 16 15 15 14 14 13 13 14 14 13 13 12 11 11 11 11 11 11 11 11 11 10 10 9 9 9 8 9 9 9 9 8 8 8 7 6 6 5 5 4 4 4 3 3
2 1 2 4 2 1 3 4 1 3 4 5 7 7 6 4 3 3 2 0 6 9 7 5 3 9 11 11 12 10 6 7 9 9 9 10 11 12 13 13 14 15 15 15 15 14 13 13 13 13 13 12 12 11 11 11 11 12 11 11 11 11 11 10 10 9 9 8 8 8 8 8 8 7 7 6 6 5 4 4 3 3 3 4 4 4
1 1 2 3 2 1 3 3 1 4 4 5 8 8 7 5 4 3 1 1 6 8 6 4 1 4 6 7 7 4 3 8 11 11 11 11 11 12 14 15 15 15 15 15 13 12 12 12 12 12 12 11 11 11 11 11 11 12 11 11 11 10 10 9 8 8 8 8 8 8 8 7 7 6 5 5 4 4 3 3 3 3 4 4 4 4
1 1 1 2 2 1 2 2 1 3 3 7 10 8 6 4 2 0 2 2 5 7 4 1 3 5 4 3 5 7 8 11 12 11 11 11 11 11 13 15 16 15 15 13 11 11 12 12 12 12 11 11 11 11 11 11 11 11 11 10 10 9 9 8 8 8 8 8 8 8 7 7 6 6 5 5 5 4 4 4 4 4 5 5 5 6
2 2 1 1 2 2 3 2 2 2 4 9 9 5 3 4 2 2 3 3 4 5 4 5 6 8 9 10 10 10 11 13 12 10 10 11 11 13 14 16 16 14 13 12 11 11 11 11 12 12 12 11 11 11 11 11 11 11 11 11 10 9 9 8 8 8 8 8 8 8 7 7 6 5 5 5 5 6 6 5 6 6 6 7 7 7
2 3 2 2 2 3 2 1 1 1 4 8 7 4 5 6 5 4 3 3 4 4 4 6 8 10 14 15 13 12 13 14 12 10 10 10 11 12 13 14 14 13 11 11 10 10 10 11 12 12 12 12 12 12 12 12 12 12 11 11 10 9 9 9 8 7 7 6 6 7 7 6 6 5 5 5 6 6 6 6 6 7 7 7 8 8
3 3 2 2 3 3 3 4 4 3 5 6 5 5 6 6 5 4 3 3 4 4 5 7 10 13 16 17 15 13 13 13 11 11 11 10 9 11 12 13 14 14 12 12 12 11 11 12 12 12 13 12 12 12 12 12 11 11 10 9 8 8 8 8 7 7 6 6 6 6 6 6 6 5 5 6 6 6 6 6 7 7 7 7 8 7
4 2 2 1 2 3 3 4 5 5 6 6 5 4 5 5 4 4 5 5 5 6 7 10 13 14 14 15 15 13 12 13 12 12 12 10 9 11 13 15 15 14 14 14 14 12 11 12 12 12 12 11 11 11 11 11 10 10 9 8 7 7 7 6 6 6 5 6 6 6 6 6 6 7 7 6 6 6 7 7 7 7 8 8 7 7
2 1 2 1 2 2 2 5 7 6 6 6 5 6 7 7 7 7 7 8 9 10 12 14 14 13 13 15 17 15 13 13 14 14 12 9 7 7 9 11 12 13 14 13 12 11 11 11 11 11 10 10 10 10 10 10 10 9 8 8 7 7 6 5 6 6 6 6 7 7 7 7 8 9 8 7 7 8 8 8 8 9 9 10 10 10
2 1 2 1 1 1 4 7 7 7 8 8 6 7 8 8 10 11 11 12 13 14 15 14 13 11 12 13 14 13 13 13 13 14 12 9 7 6 6 8 10 11 11 10 9 10 10 10 10 10 10 10 10 10 10 10 10 10 10 9 9 8 7 7 7 7 7 8 8 8 9 8 8 9 9 8 8 9 9 9 9 10 10 11 11 11
0 1 1 2 3 3 5 6 5 6 9 10 9 9 9 9 12 13 13 14 15 15 14 12 10 10 11 11 12 13 14 14 14 14 12 8 7 7 7 9 10 9 9 9 9 9 9 9 10 11 11 11 10 11 12 12 12 13 13 12 12 11 11 9 9 9 9 9 9 10 10 9 8 9 10 9 9 9 9 9 9 9 9 9 9 10
2 1 1 2 3 3 4 4 4 5 6 8 9 11 11 11 12 13 13 13 12 12 12 11 11 11 11 12 12 13 13 13 14 14 12 11 11 11 11 11 11 10 9 9 9 10 10 11 11 12 12 11 11 12 13 13 13 14 14 14 14 14 13 12 10 10 10 10 11 12 12 11 10 11 12 11 11 11 11 11 11 10 8 7 10 13
2 2 2 1 4 6 8 8 7 7 7 7 9 12 12 11 12 12 13 12 12 11 12 11 11 10 10 11 13 13 12 12 13 14 13 13 13 12 11 11 11 10 9 9 9 11 12 12 13 13 13 12 12 13 13 13 13 14 14 14 14 14 14 13 12 11 11 12 12 13 13 12 12 13 13 13 13 13 13 13 13 11 9 10 15 16
Wind_Direction
290 286 282 312 339 339 323 307 296 300 300 299 296 293 307 313 355 31 15 30 354 302 19 17 14 56 64 88 90 196 98 91 88 87 86 76 82 94 95 99 106 108 126 152 154 139 139 151 153 152 151 149 152 158 164 167 170 171 168 165 164 165 167 167 169 171 173 175 176 179 178 177 172 159 163 169 169 169 165 166 156 149 135 44 30 32
252 289 346 340 337 329 312 301 285 279 276 276 284 293 299 312 20 29 15 34 339 306 22 5 41 76 56 74 93 113 83 75 78 85 95 107 103 105 105 103 105 122 147 152 161 139 134 148 153 149 150 150 154 161 165 169 172 172 169 167 167 167 169 171 173 174 175 176 178 179 177 177 169 160 167 169 173 178 170 173 167 155 155 61 34 65
241 293 354 319 321 314 295 287 275 271 270 268 275 287 300 344 20 18 4 34 333 307 6 356 45 78 67 72 73 69 77 77 79 81 91 119 118 110 112 109 103 117 122 125 158 146 134 148 155 146 146 151 158 162 164 169 172 171 170 169 169 168 170 172 174 175 175 172 174 173 168 171 164 157 165 162 166 177 172 173 174 167 168 184 28 94
314 51 4 308 309 297 288 282 275 270 262 259 274 287 328 5 349 349 50 41 342 344 9 351 54 89 85 86 74 68 89 102 97 99 94 100 115 106 102 100 91 100 107 97 113 139 134 148 158 150 151 154 161 165 164 168 171 170 171 171 169 170 172 172 173 173 171 166 166 161 157 165 163 157 168 168 167 179 178 177 183 181 176 195 16 89
334 41 31 307 296 292 302 309 300 290 272 256 272 304 337 358 342 343 21 343 257 152 28 317 89 95 78 78 73 72 96 96 94 108 103 93 108 105 86 85 85 84 106 101 93 104 123 141 155 157 158 157 163 166 163 167 170 171 171 171 171 171 172 173 174 172 169 170 169 163 163 170 170 169 178 180 174 180 187 188 191 191 191 201 84 101
349 47 126 230 280 289 305 322 331 329 312 297 53 354 333 333 324 313 323 294 246 115 73 327 8 89 71 62 64 77 90 86 86 95 99 98 101 101 84 76 85 79 93 102 101 95 112 130 141 150 159 162 166 167 166 166 168 170 170 171 172 172 173 174 175 173 173 176 175 173 173 173 177 179 181 181 170 174 186 193 196 196 202 210 196 171
321 167 189 205 239 280 291 346 2 333 305 336 36 352 315 312 307 289 270 272 327 66 59 327 359 98 87 60 57 80 89 89 92 86 88 96 97 95 86 71 62 63 76 94 110 117 117 131 138 145 158 165 166 167 168 168 167 168 171 173 174 175 176 176 177 179 180 179 179 182 181 175 178 178 177 178 168 167 178 190 200 200 200 207 204 196
241 271 215 208 198 210 283 5 155 257 267 11 6 324 295 298 291 249 243 262 21 39 135 81 25 91 91 59 63 83 88 80 75 78 80 88 97 97 91 85 45 36 62 89 121 136 138 140 136 140 159 168 167 164 164 168 170 168 171 175 176 177 179 180 179 181 185 183 181 186 186 182 183 181 178 180 173 174 184 196 205 205 204 210 215 205
200 300 306 262 241 157 177 208 184 213 253 337 342 314 295 300 282 225 245 255 42 11 116 80 12 116 95 87 103 93 77 68 63 74 78 79 92 101 105 108 91 55 54 68 106 135 143 137 132 147 166 162 157 157 159 166 170 170 172 175 178 181 183 183 178 179 188 188 181 186 189 187 189 186 181 179 174 178 190 200 204 211 212 211 214 214
175 297 316 303 311 101 157 187 184 192 230 333 320 293 264 242 235 219 248 243 178 155 67 45 345 348 100 95 101 84 66 63 64 74 83 90 96 103 113 121 117 99 82 80 96 122 132 133 140 157 164 145 141 159 169 173 170 170 173 176 182 183 178 177 176 184 194 192 185 188 193 193 191 188 183 177 173 180 193 204 202 209 216 214 211 209
46 226 271 275 303 23 149 173 189 190 191 280 289 264 207 179 205 218 232 253 226 113 59 32 354 330 110 78 55 65 70 70 85 83 87 100 103 111 123 134 137 137 151 160 158 144 129 131 141 155 157 150 150 159 175 183 175 169 175 181 185 181 172 174 182 189 194 193 190 194 198 199 196 191 184 178 177 183 188 193 191 197 208 213 205 197
166 177 237 240 261 270 179 164 199 198 184 203 269 283 225 176 191 212 198 223 237 82 62 30 360 351 53 73 56 79 93 88 93 90 95 103 109 123 131 143 148 151 162 164 166 163 144 133 141 155 157 155 158 161 173 182 176 169 177 184 183 181 179 183 191 196 197 194 193 198 203 203 201 196 189 183 181 185 184 173 170 177 186 192 192 194
158 129 65 136 214 255 252 188 207 209 203 201 211 269 238 168 179 184 163 164 68 66 50 3 342 30 67 77 71 78 87 90 94 96 106 110 113 125 134 144 145 143 152 159 161 162 153 144 150 161 158 150 157 165 169 174 175 171 176 183 182 182 185 189 197 201 202 198 196 202 205 204 206 203 198 191 182 186 189 179 177 178 182 186 190 201
48 111 90 357 154 250 288 313 263 225 251 239 243 275 315 76 155 116 104 115 84 81 58 3 318 52 80 70 69 83 95 97 107 114 115 116 121 130 134 135 130 132 145 153 150 152 153 150 154 156 149 144 153 161 160 167 178 179 177 182 183 184 191 194 198 200 201 200 200 207 208 204 207 208 207 203 194 193 191 191 199 197 198 203 206 213
344 73 43 9 25 334 311 336 349 333 323 8 358 309 2 44 34 78 74 78 95 102 64 16 333 22 49 29 26 89 105 100 111 117 117 120 124 129 125 119 121 127 135 137 136 143 144 142 144 144 143 147 153 157 160 168 180 185 182 183 186 188 191 191 192 195 198 198 199 207 210 207 208 212 210 206 209 213 202 200 209 209 210 216 221 228
332 11 50 28 349 330 341 350 346 343 346 1 345 321 19 28 358 47 60 29 56 107 67 22 7 47 42 175 244 137 111 106 114 116 118 120 118 121 119 116 118 119 122 127 129 134 137 136 134 135 142 150 156 160 168 174 180 187 185 184 187 188 187 184 186 192 196 197 201 207 212 211 211 213 213 211 216 221 216 215 217 218 221 226 232 241
342 360 73 103 209 326 356 358 357 2 3 356 357 23 42 12 346 55 98 41 318 105 85 64 135 135 151 126 36 120 112 108 113 116 119 120 121 124 121 123 126 120 123 126 124 126 133 134 132 135 143 151 161 167 171 177 181 185 185 184 185 185 184 185 188 192 195 198 203 208 213 214 213 213 212 211 216 219 220 226 232 236 236 238 244 250
339 314 88 51 317 118 35 319 330 11 358 4 32 51 27 300 321 337 86 131 130 92 79 72 87 100 124 85 11 101 109 105 111 121 123 120 124 128 125 130 129 125 128 124 120 122 125 128 129 135 143 148 158 166 169 174 175 177 181 181 182 185 187 187 188 192 194 196 200 206 212 213 211 210 205 201 204 210 219 228 237 244 246 248 253 257
334 305 97 33 334 127 196 254 227 136 111 11 50 86 277 314 69 357 359 79 107 103 98 104 91 63 56 69 60 94 101 105 111 120 123 121 125 127 126 127 123 121 124 120 118 120 121 125 127 131 136 139 146 153 159 163 163 167 171 171 176 181 182 183 183 187 190 191 196 201 204 204 203 201 199 198 201 207 220 232 239 243 247 252 255 260
338 313 47 55 33 122 224 269 4 78 133 89 97 165 207 14 26 14 326 311 66 129 138 140 127 82 50 31 20 57 96 112 117 114 109 113 119 121 123 125 122 118 114 113 116 117 117 120 123 129 132 132 135 140 146 153 158 161 159 160 167 169 170 174 177 182 185 187 192 194 195 196 198 198 198 203 209 214 226 237 244 246 248 254 258 265
323 295 335 347 148 157 271 7 359 354 40 37 343 28 33 57 44 30 3 305 333 148 146 141 131 89 59 10 354 18 73 94 110 118 110 111 117 118 117 115 114 111 106 108 113 114 117 121 123 128 129 129 135 138 141 148 153 153 148 149 154 157 163 168 174 181 182 184 189 192 195 196 200 205 211 217 224 232 241 248 251 250 250 256 263 270
334 295 313 312 275 56 49 49 10 355 357 352 18 14 348 350 67 32 104 108 351 348 98 133 128 84 41 340 356 21 58 93 116 121 114 114 112 111 112 106 103 105 102 105 113 119 123 123 124 126 128 132 137 137 136 139 140 138 136 139 146 152 159 162 170 176 175 178 183 187 194 195 200 211 220 229 238 247 252 252 252 252 255 262 268 272
335 297 300 306 321 31 56 64 37 4 334 334 37 11 337 338 328 341 54 76 101 113 103 133 118 85 15 345 43 52 85 106 114 108 108 111 102 98 101 100 99 98 98 102 109 115 115 111 113 116 118 122 124 123 124 125 126 127 129 136 143 146 150 154 160 164 165 167 166 171 183 185 193 212 224 235 243 249 251 251 250 251 258 266 270 271
263 302 312 311 304 117 106 128 138 43 340 337 34 11 352 360 341 347 16 17 135 118 168 169 119 100 82 63 74 97 104 99 100 100 103 109 106 100 102 104 103 99 97 101 106 109 109 110 111 110 109 110 113 118 121 123 123 125 128 133 133 132 133 136 141 143 145 146 143 147 155 155 174 205 222 229 232 238 243 251 256 256 263 269 268 268
310 329 331 323 321 123 128 166 143 42 2 356 19 11 3 3 343 346 310 264 109 66 308 286 108 110 120 103 93 106 109 105 107 106 106 114 115 110 109 109 107 107 106 106 107 104 103 108 111 109 109 111 112 115 117 118 119 117 117 118 117 117 117 117 120 123 122 122 120 118 121 129 156 191 209 218 227 239 245 263 277 278 276 271 267 266
310 335 340 332 336 352 354 3 19 360 348 356 8 12 21 26 354 327 266 336 66 119 312 360 98 115 117 117 114 112 112 108 107 107 108 110 108 109 115 114 110 110 108 107 106 103 100 100 102 103 104 106 107 108 108 106 106 105 102 101 101 101 100 99 101 104 105 107 109 109 112 116 124 147 166 181 215 232 261 307 280 283 288 281 280 273
275 325 2 342 337 352 353 3 6 337 332 353 1 12 29 23 355 342 329 18 37 66 13 67 114 128 125 122 120 117 116 110 107 108 107 105 105 108 110 109 109 109 106 106 104 103 102 99 98 100 100 100 100 100 99 96 95 95 93 90 90 91 91 92 94 95 95 96 100 103 104 104 102 101 101 98 101 99 80 71 173 67 318 296 291 280
274 311 31 346 332 354 349 350 356 330 341 356 357 12 21 2 360 6 8 24 22 358 45 107 126 128 128 128 121 120 122 116 113 111 108 109 112 112 111 111 114 113 109 107 101 99 99 96 95 96 94 92 91 90 91 92 92 93 93 92 90 90 93 98 97 95 95 94 93 93 93 93 92 88 86 88 89 87 83 81 83 74 57 64 231 291
291 332 29 330 316 344 343 343 341 313 339 1 356 10 18 11 18 34 30 26 12 6 101 132 131 123 129 134 126 126 125 116 112 111 111 115 116 117 119 118 116 112 108 106 104 101 97 93 90 88 85 84 84 83 84 85 86 88 90 91 91 88 91 95 95 93 93 92 90 89 90 92 94 93 91 90 89 88 87 82 79 82 81 79 89 85
305 333 17 318 298 265 348 339 333 304 293 355 5 13 20 29 46 57 54 44 33 58 125 139 129 120 127 130 123 125 124 116 116 117 118 121 121 119 118 116 115 113 110 108 106 101 95 92 89 85 82 80 79 80 79 78 80 83 82 82 83 86 90 90 90 89 88 88 88 88 90 90 89 89 87 87 86 88 92 86 79 83 84 83 83 79
309 308 10 306 287 212 140 265 247 259 282 298 23 20 14 27 49 54 51 40 39 97 129 136 126 121 131 130 125 127 126 122 123 123 120 119 120 121 119 118 118 116 115 112 107 101 95 91 88 83 81 77 76 79 81 80 83 84 81 78 76 79 84 85 85 84 81 82 84 86 87 85 82 80 79 79 81 85 90 90 85 83 84 82 80 73
294 284 273 285 289 298 111 286 267 260 277 325 30 12 3 14 30 38 46 26 26 121 136 143 140 135 139 133 130 132 131 128 126 127 128 126 126 125 121 122 123 119 116 112 105 100 95 88 82 77 75 75 74 77 79 82 85 84 82 84 84 81 79 77 75 74 74 76 79 82 83 79 76 75 74 74 78 80 85 88 85 82 82 83 83 78
294 292 286 290 299 309 73 343 299 262 245 82 31 357 350 2 12 27 49 37 52 130 143 159 146 138 143 140 138 139 136 133 132 133 132 130 130 129 122 121 121 115 111 108 103 99 94 85 78 73 71 71 71 71 74 77 81 83 84 87 90 87 80 75 72 72 73 74 74 76 79 77 75 75 74 74 75 75 79 86 86 84 84 85 81 74
278 283 294 305 291 290 339 315 272 251 220 91 39 358 354 3 6 21 45 50 71 100 84 104 121 134 147 144 139 141 137 131 130 128 126 127 129 128 122 118 115 110 107 106 102 95 89 83 79 74 71 70 71 75 80 83 85 89 91 91 89 85 81 78 76 74 72 70 71 72 74 76 77 76 76 77 78 79 81 86 88 86 85 82 77 71
268 273 285 282 280 290 308 283 265 256 89 98 72 30 17 13 9 31 59 65 68 54 47 125 129 138 147 140 137 139 130 124 125 121 119 121 121 121 119 116 114 111 106 102 97 93 92 88 82 76 72 72 76 82 87 90 90 89 90 90 88 86 83 80 76 73 71 71 72 74 74 77 79 79 80 81 81 83 83 84 84 82 79 76 71 69
272 273 269 260 285 289 271 268 276 89 108 114 81 38 21 7 358 29 72 63 44 26 59 127 134 146 148 141 139 134 123 119 118 113 111 114 114 117 117 115 111 107 103 104 104 99 94 89 82 77 74 74 78 83 87 89 90 90 90 90 89 86 83 79 75 73 73 73 74 76 78 81 81 81 82 82 82 82 81 81 80 76 73 71 66 65
279 279 265 253 280 285 277 276 132 114 112 102 66 36 24 13 351 349 45 60 33 8 30 129 143 160 152 138 135 131 128 125 116 109 109 109 109 110 109 107 108 107 107 108 106 101 95 90 85 79 75 74 77 82 86 87 87 88 88 86 86 84 82 80 77 74 72 71 72 72 74 77 79 79 79 78 78 76 74 72 69 63 59 58 55 52
292 297 289 274 251 273 283 276 215 163 123 56 38 25 14 13 356 340 343 51 28 3 348 148 154 159 153 145 143 141 139 133 123 119 115 108 108 111 111 111 112 112 112 111 108 104 98 92 87 82 78 77 77 80 85 88 89 89 87 85 85 85 82 80 78 75 72 70 68 67 66 68 71 71 71 70 67 65 62 59 55 46 37 35 36 31
292 292 280 265 236 249 272 275 275 167 95 35 12 358 348 352 360 337 317 35 11 355 334 288 164 156 156 156 156 159 158 145 135 133 123 117 119 118 117 117 115 114 114 112 108 104 99 93 87 82 78 77 78 80 84 88 89 89 87 86 85 83 79 75 73 73 72 68 65 65 63 61 61 61 63 62 58 52 49 44 39 29 14 359 355 360
283 286 278 267 243 240 270 268 332 82 78 27 357 342 334 326 298 270 210 34 348 345 336 311 202 164 169 171 166 172 176 145 136 133 122 118 121 120 117 117 116 115 113 108 104 103 101 96 88 80 76 75 80 84 86 87 86 83 81 80 79 76 73 70 68 69 69 67 64 63 59 57 55 51 49 52 48 41 35 27 15 4 348 331 329 337
280 313 309 282 257 229 262 259 139 94 70 12 349 337 326 302 262 247 164 42 335 339 338 313 281 144 174 184 166 147 74 89 108 117 112 107 110 113 113 110 107 106 105 104 106 105 99 91 83 78 76 75 79 83 84 85 85 83 79 76 72 68 65 62 59 58 57 56 54 50 47 44 40 33 29 29 23 12 5 357 344 331 321 315 318 320
297 293 264 279 286 271 257 261 182 116 69 354 335 331 326 301 250 71 51 32 346 345 353 28 77 75 69 78 95 95 84 79 82 88 90 87 86 90 94 95 93 92 96 100 102 99 95 90 84 80 77 75 77 79 81 82 81 79 76 70 63 59 56 53 51 49 47 44 42 38 33 28 22 13 7 3 354 344 337 332 324 313 307 306 306 303
346 301 245 26 339 288 245 257 256 155 49 358 338 340 16 7 4 10 13 31 21 9 26 59 76 85 82 73 72 80 82 75 70 68 67 68 68 68 72 79 83 87 98 106 104 99 98 95 89 82 76 73 73 74 75 76 75 72 69 63 55 51 48 44 42 44 43 39 35 29 21 15 9 360 351 345 338 332 327 322 318 310 302 301 301 299
8 311 298 55 14 306 279 30 10 356 20 5 347 343 6 1 344 329 344 31 42 42 63 73 78 89 94 93 86 80 80 77 72 66 59 55 57 56 56 64 73 79 86 95 98 98 97 94 88 82 76 71 67 68 69 69 68 65 61 56 50 48 48 45 42 42 39 32 26 19 10 4 0 357 351 343 335 327 321 320 317 311 304 302 301 299
46 10 335 16 31 13 11 35 38 24 15 8 351 334 338 342 338 342 21 61 52 54 80 99 103 101 101 102 97 88 86 85 78 69 63 55 49 48 50 60 71 74 71 72 78 83 86 87 84 79 74 67 62 62 62 61 61 57 50 44 40 37 39 40 38 35 28 19 11 3 358 352 350 350 345 337 330 322 319 319 315 313 313 309 303 301
61 33 304 315 63 71 56 36 30 28 20 11 9 6 1 5 20 48 75 79 72 81 98 110 113 111 108 106 102 95 93 92 84 76 70 62 51 50 54 60 66 71 77 81 83 83 84 85 81 74 70 65 61 61 58 53 49 44 35 31 28 23 21 22 19 12 4 358 348 341 339 336 333 332 323 313 311 312 313 312 311 313 315 310 306 308
92 320 270 187 135 147 82 53 41 34 26 18 31 55 54 55 67 81 90 90 91 98 106 110 112 109 102 101 104 104 101 95 90 88 89 91 90 80 74 73 75 82 90 93 92 91 91 88 82 76 71 66 61 57 51 45 39 32 25 21 15 7 3 1 355 347 345 344 339 336 332 328 327 326 318 309 309 310 308 310 312 311 309 308 310 312
116 268 260 185 135 103 76 77 73 60 48 42 54 70 71 76 84 86 91 98 102 104 106 108 109 108 106 106 108 111 111 109 111 118 125 131 134 128 119 111 105 104 102 96 91 94 94 88 82 76 69 64 59 55 52 47 40 34 29 23 16 9 6 3 359 359 0 359 359 356 347 339 336 332 326 324 324 319 318 323 325 323 322 325 328 326
324 226 195 139 121 103 90 92 95 77 58 52 64 80 83 88 93 92 93 97 101 103 100 93 85 89 104 114 116 116 119 123 129 135 138 138 134 133 130 124 119 114 107 97 92 94 92 86 82 77 71 66 64 64 62 56 49 43 39 35 30 27 25 24 23 23 21 17 15 8 356 348 348 344 337 335 335 332 331 333 334 335 337 344 353 353
294 221 153 172 169 129 90 77 88 96 77 62 73 87 91 94 97 96 94 95 97 98 98 92 85 83 90 102 110 115 118 122 128 132 132 130 130 130 127 124 120 115 110 105 99 91 86 83 83 82 76 71 68 66 63 57 51 46 42 38 34 32 29 27 24 21 18 12 8 3 354 345 344 343 339 336 335 333 332 330 330 334 340 348 352 353
344 355 347 57 103 97 96 96 100 107 103 91 93 97 97 97 97 97 98 102 104 107 109 110 107 100 93 96 104 109 113 120 127 129 125 120 118 115 113 113 112 108 105 103 96 90 87 85 83 80 76 72 69 66 62 56 49 43 39 34 31 28 25 20 15 11 8 4 358 354 347 340 340 340 337 336 336 335 332 330 329 333 342 347 346 348
Height
764 765 763 762 763 763 761 760 760 760 760 763 763 759 757 754 751 751 752 750 750 753 750 745 747 747 746 752 761 756 746 744 746 749 751 750 749 750 750 750 751 753 753 755 759 759 762 767 768 770 774 776 779 782 785 788 790 793 795 797 799 801 804 806 808 809 811 812 814 816 818 819 820 822 823 824 825 826 826 827 827 828 829 829 829 829
765 768 765 761 762 763 762 761 761 761 761 762 761 757 754 750 750 751 751 750 748 752 755 748 743 744 744 748 755 753 748 748 748 751 753 752 751 751 752 753 753 755 754 756 761 760 761 769 770 771 775 777 780 782 786 788 791 794 795 797 799 801 804 806 808 810 811 813 814 815 817 819 820 821 822 824 825 825 826 827 827 828 829 829 829 828
765 764 764 760 759 761 762 762 762 763 761 761 758 754 754 750 752 756 753 749 747 752 758 749 743 746 744 745 748 749 750 751 749 751 752 751 752 752 753 753 753 756 756 755 761 760 761 771 772 773 776 778 781 784 786 790 792 794 796 798 800 802 804 806 808 810 812 813 814 815 817 819 820 821 822 823 824 825 825 827 827 828 828 828 828 828
765 760 761 758 759 763 763 761 763 763 758 758 757 754 752 749 753 759 755 750 747 748 751 747 747 750 748 746 746 746 748 750 751 751 751 750 751 753 752 752 753 756 754 753 761 761 762 771 774 774 777 779 783 785 787 790 792 795 797 799 800 802 805 807 809 811 812 813 814 815 817 819 820 821 822 823 824 825 825 826 827 828 828 828 827 827
763 759 758 760 764 765 765 763 762 763 760 756 754 754 753 749 751 754 752 750 747 746 746 746 753 753 749 749 748 746 746 750 754 753 753 752 751 752 752 752 754 756 750 750 762 765 764 771 776 777 779 781 784 786 788 791 793 795 797 799 801 802 805 806 808 810 811 813 814 815 817 819 820 821 822 822 823 824 825 825 826 827 828 828 827 828
765 761 758 764 768 766 767 768 766 767 768 760 751 753 754 751 752 750 751 753 749 749 746 748 764 761 747 749 752 749 749 753 756 754 753 753 752 754 756 755 756 758 752 750 762 770 769 773 778 779 781 783 785 786 789 791 793 796 797 798 801 802 805 806 808 810 811 813 814 815 816 818 819 820 821 821 821 822 823 824 825 826 827 827 827 828
764 757 758 764 767 768 769 770 769 767 772 766 753 751 752 751 753 751 755 756 751 753 747 746 764 766 753 752 752 749 750 753 754 755 754 754 756 758 759 758 758 759 757 756 766 773 774 776 779 781 783 784 785 786 789 792 793 795 797 798 801 802 804 806 807 809 811 812 814 815 816 817 818 818 819 820 820 821 822 823 824 825 826 827 827 827
760 754 757 760 764 772 775 773 769 766 770 765 752 751 753 753 754 753 754 752 749 756 751 741 750 761 761 756 750 747 748 749 753 758 759 757 759 761 761 762 760 760 761 764 771 774 777 779 780 782 784 784 786 787 790 792 794 795 797 799 800 802 804 805 807 808 810 812 813 815 816 817 818 818 819 819 820 821 822 823 824 824 826 826 827 827
754 755 755 754 761 774 777 770 765 766 768 759 750 752 752 752 753 751 752 750 751 764 762 745 744 761 769 757 747 748 749 754 758 761 763 762 762 763 764 766 766 765 765 768 772 775 777 779 781 783 784 785 787 789 791 792 794 795 797 799 800 802 804 805 807 808 810 811 813 814 816 816 817 817 818 818 819 821 821 822 823 824 825 825 826 827
750 751 749 751 757 765 768 762 759 767 767 757 753 753 750 752 751 749 750 748 751 765 765 751 746 762 771 757 749 753 755 761 764 761 763 764 764 765 767 769 770 771 771 771 773 775 778 780 782 784 784 787 789 790 792 793 794 796 797 799 800 802 804 805 807 809 810 812 813 814 816 816 817 817 817 818 819 820 821 822 823 824 824 825 825 826
745 746 746 749 750 751 754 756 758 762 763 759 756 753 748 748 747 746 747 745 753 764 762 754 747 755 768 766 763 764 761 761 763 762 763 764 765 767 768 770 771 773 774 775 776 777 779 781 782 784 785 787 789 791 793 794 795 796 797 799 800 801 803 804 806 808 810 811 812 814 815 816 816 817 817 817 818 819 820 821 822 823 824 824 824 825
745 748 747 744 744 743 748 758 760 755 757 761 761 758 756 755 751 749 747 747 761 769 759 751 745 749 767 775 771 765 758 756 759 761 763 765 767 767 766 767 769 773 774 775 777 777 779 782 783 784 785 786 789 791 793 794 795 796 798 799 799 801 802 803 805 807 809 810 811 813 814 815 816 816 816 816 817 818 818 820 821 822 823 824 824 825
743 746 745 743 742 740 748 762 768 762 758 762 765 766 773 775 767 761 757 756 764 766 757 749 750 759 770 771 768 765 759 756 758 759 760 762 765 766 765 765 766 770 773 774 777 778 778 781 783 783 784 786 789 791 792 793 795 796 797 798 799 801 802 804 806 807 808 809 810 812 813 814 815 815 815 815 816 817 818 819 820 821 823 823 823 824
753 749 743 744 744 740 743 755 766 766 756 758 762 759 767 778 776 770 766 763 763 763 757 749 753 769 776 770 769 766 760 758 757 757 758 759 761 764 763 763 765 768 771 772 775 776 777 779 781 782 784 787 789 791 792 794 795 796 796 797 799 800 802 804 806 807 808 809 810 811 812 813 814 814 815 815 815 817 818 818 819 820 821 822 822 822
766 763 748 746 747 741 741 744 749 753 749 748 746 743 754 769 775 773 766 761 761 761 760 758 762 776 781 775 768 760 754 756 757 756 757 758 758 760 762 764 766 768 769 770 772 774 775 777 779 782 785 788 789 790 792 793 794 795 796 797 799 800 802 803 805 806 807 808 809 810 811 812 813 814 814 815 815 816 817 818 818 819 820 820 820 820
762 761 745 743 743 738 743 740 737 751 758 747 738 745 756 757 758 764 762 758 757 759 768 774 776 776 774 767 760 757 756 756 756 757 758 760 760 761 764 766 767 768 770 770 771 773 774 776 779 781 784 787 788 790 791 793 794 795 796 797 798 800 801 802 804 805 806 807 809 810 811 812 812 813 814 814 815 815 816 817 818 818 819 819 819 819
767 763 742 740 743 737 741 739 735 749 760 755 751 756 753 743 746 760 765 759 756 765 776 778 778 778 774 768 759 755 757 756 757 759 760 761 764 765 768 768 769 770 771 772 772 773 774 776 778 781 783 786 788 790 791 793 794 795 796 797 798 799 800 802 803 804 805 807 808 809 810 811 811 812 812 813 813 814 815 816 817 818 818 818 819 819
765 765 744 741 747 740 737 739 737 738 747 758 761 753 744 743 745 751 759 761 761 773 778 772 772 775 776 778 769 758 758 759 758 758 760 763 766 768 769 769 770 771 772 773 773 773 775 776 779 781 783 786 787 789 791 793 794 795 796 796 797 799 800 801 802 804 805 806 807 808 809 810 810 811 811 812 812 813 814 815 816 816 817 817 818 818
756 764 751 740 743 741 734 738 744 740 738 745 747 741 745 758 760 756 762 769 771 779 783 775 771 772 774 777 772 764 764 767 763 758 761 767 768 768 769 768 769 771 772 773 773 774 776 777 779 781 783 786 787 789 791 792 794 794 795 796 797 798 799 801 802 803 804 805 806 807 808 809 809 810 810 810 811 812 813 814 815 815 816 816 816 817
751 765 762 741 736 742 739 739 749 747 738 740 743 739 739 749 759 759 760 766 769 773 777 775 772 775 779 777 771 767 766 770 770 764 765 770 769 767 767 767 769 771 772 773 774 775 776 778 781 782 784 786 788 790 791 792 794 794 795 796 797 798 799 801 802 803 804 805 806 806 807 808 808 809 809 809 810 812 812 813 814 814 815 815 815 815
749 761 765 745 733 745 750 745 746 744 743 753 758 754 748 747 755 762 757 754 761 766 768 772 776 777 777 776 774 769 764 767 771 769 769 771 767 767 768 768 769 771 772 773 773 775 776 778 781 783 785 787 788 790 791 792 794 794 795 796 796 798 799 801 802 802 803 804 805 805 806 806 807 808 808 809 810 811 811 812 812 813 813 813 814 814
753 756 761 750 738 744 747 739 737 738 740 748 754 756 752 747 758 774 768 753 753 760 760 766 779 782 776 775 773 769 766 768 769 767 769 770 768 770 771 769 770 771 772 773 773 774 776 777 781 783 785 788 789 791 791 792 793 794 795 796 796 798 799 800 801 802 803 804 804 804 805 806 806 807 807 808 809 810 810 811 811 811 812 812 813 813
754 753 755 751 740 738 739 734 735 737 734 736 743 747 743 740 750 764 765 755 751 754 752 756 775 786 779 773 773 772 770 771 769 766 769 772 771 773 773 771 772 772 773 774 773 773 774 777 781 784 786 788 789 790 791 792 793 794 795 796 797 798 799 800 801 802 802 803 803 804 804 805 805 806 807 808 809 809 809 810 810 810 810 811 811 812
756 757 757 750 736 732 736 734 732 733 735 740 742 740 740 742 744 746 748 748 749 755 756 758 774 787 781 772 774 775 771 772 774 772 773 776 776 776 775 773 774 775 776 776 775 774 776 779 783 785 786 788 789 791 792 792 794 795 796 797 797 799 799 800 801 801 801 802 802 803 803 804 805 806 807 808 808 808 808 808 809 809 810 810 811 811
759 759 760 761 754 751 754 752 745 741 742 747 745 741 742 742 741 743 743 741 749 758 757 760 776 788 780 773 776 775 771 774 777 776 776 778 779 779 778 777 777 777 778 778 778 778 779 781 784 785 787 789 790 792 793 793 794 795 796 797 798 799 799 800 800 800 801 801 802 802 803 804 805 806 807 807 807 807 807 808 808 808 809 810 810 811
758 758 759 768 773 772 773 771 765 756 749 747 745 743 744 742 742 746 743 743 755 758 750 757 778 787 777 774 779 778 773 774 776 776 775 774 776 778 778 778 778 778 779 780 781 782 782 783 785 787 788 790 791 793 793 793 794 795 796 797 797 798 799 799 799 800 800 801 801 802 803 804 805 806 806 806 807 807 807 807 808 808 809 809 810 810
756 757 758 766 768 767 768 765 760 757 756 756 753 747 746 745 744 746 747 751 757 757 753 758 771 782 780 776 780 780 776 776 776 776 776 775 776 777 776 778 779 779 780 782 782 784 785 786 787 788 790 791 791 792 792 793 794 795 796 796 797 798 798 799 800 800 801 802 802 803 804 805 805 806 806 806 806 807 807 807 808 808 809 809 810 810
757 759 762 765 763 759 759 756 754 756 758 759 756 751 749 747 746 753 758 757 755 761 768 763 762 777 782 777 778 779 775 775 776 776 777 777 777 778 779 780 780 781 782 783 785 786 787 788 789 789 791 791 792 792 793 794 794 795 796 797 798 799 799 800 801 801 802 803 803 804 805 806 807 806 807 807 807 807 808 808 809 809 809 810 810 810
759 761 761 763 762 758 756 755 754 756 758 758 755 753 751 749 750 756 759 755 753 761 766 761 761 773 777 774 775 775 772 774 775 775 776 776 777 778 781 782 783 784 785 786 788 789 789 790 791 791 792 792 793 794 794 795 795 796 797 798 799 800 801 801 802 803 804 805 805 807 807 807 808 808 808 808 808 808 808 809 810 810 810 810 810 811
759 763 760 760 760 758 757 756 755 755 757 757 755 751 751 751 752 754 756 754 754 755 755 755 763 771 770 769 771 771 771 773 774 774 774 775 777 778 782 786 787 788 789 789 789 790 791 792 792 793 794 795 795 796 796 797 798 798 799 800 801 802 803 804 805 806 807 807 808 809 809 809 809 809 809 809 809 810 810 810 811 811 812 812 812 812
760 765 761 758 759 758 756 755 755 756 757 758 757 755 752 752 754 756 757 757 756 757 755 756 767 774 769 765 769 771 771 773 775 776 776 776 778 779 783 788 789 789 790 790 790 791 792 793 794 795 796 797 798 798 798 800 800 801 802 803 804 805 805 806 807 808 808 809 809 810 810 811 811 811 811 811 812 812 812 812 813 813 814 813 813 814
758 762 758 758 764 762 754 754 755 753 754 760 766 766 761 759 759 758 759 760 760 760 762 765 771 775 770 765 770 774 773 775 778 778 778 780 781 782 785 788 788 789 790 790 791 793 794 795 796 797 798 799 800 800 801 802 803 803 805 806 808 808 809 809 809 809 810 810 811 811 812 812 812 813 813 813 814 814 814 815 815 815 815 815 815 815
758 761 758 761 769 765 754 754 755 754 761 773 776 773 768 764 762 759 759 761 757 757 766 770 767 768 771 770 773 775 775 776 778 777 778 781 783 784 786 787 788 789 790 792 793 794 796 798 799 801 801 802 803 803 804 805 806 807 808 809 810 810 810 811 811 811 812 812 812 813 813 814 814 815 815 815 816 816 816 816 817 817 817 817 817 816
759 761 758 760 769 766 756 753 755 761 777 783 776 771 770 767 765 764 765 764 760 758 764 764 760 762 768 771 773 774 774 776 778 777 778 780 782 784 785 786 788 790 792 794 795 797 799 801 803 805 805 806 807 807 808 809 809 810 811 811 812 812 812 812 813 813 814 814 815 815 815 816 816 816 817 817 818 818 818 818 818 818 819 818 818 818
762 761 759 760 765 763 756 756 768 782 787 779 771 769 770 767 764 764 766 764 762 762 762 761 763 765 768 771 773 771 772 775 777 779 779 780 782 784 786 788 790 792 795 797 798 801 803 805 806 808 809 810 810 810 810 811 812 813 813 813 813 813 814 814 815 816 816 817 817 818 818 818 819 819 819 819 819 820 820 820 820 820 820 819 819 819
763 762 761 762 764 765 763 765 777 787 780 770 772 773 771 770 768 768 772 771 766 765 763 764 769 768 766 771 773 772 774 778 779 781 782 782 784 785 788 791 793 796 799 801 803 805 806 808 810 811 812 813 812 812 813 813 814 814 814 815 815 815 816 817 818 819 819 820 820 820 821 821 821 821 821 821 821 821 821 822 821 821 821 820 820 820
760 761 762 765 768 768 767 765 769 779 780 776 779 779 778 780 777 775 780 778 771 767 765 768 775 773 768 769 772 774 777 780 785 788 786 785 787 789 791 794 797 800 803 805 807 808 810 812 813 814 815 815 815 815 815 816 816 816 817 817 818 819 820 821 821 822 822 822 822 822 822 822 822 822 822 822 822 823 823 823 822 822 822 822 821 821
759 760 761 769 771 767 767 767 770 782 791 787 783 781 779 780 779 779 783 782 776 772 769 769 775 776 771 771 775 776 778 784 793 795 791 790 792 793 795 798 800 803 806 808 810 811 813 815 815 816 817 817 818 818 818 819 819 819 820 821 821 822 823 823 824 824 824 824 824 824 824 824 824 823 823 823 823 824 824 824 824 823 823 823 823 822
759 758 757 765 769 768 771 773 772 782 791 787 783 781 777 776 777 779 787 789 783 778 774 773 776 776 773 774 776 777 779 788 798 799 795 795 796 796 798 801 803 806 808 809 812 814 815 817 818 819 820 820 820 821 821 822 822 822 823 824 824 825 825 826 826 826 826 826 826 826 825 825 825 825 824 825 825 825 825 824 824 824 824 824 823 822
763 761 761 765 769 771 774 772 770 780 788 786 783 779 774 773 774 780 794 798 789 780 777 778 780 778 774 773 776 778 781 788 796 799 798 799 799 800 801 803 805 808 809 812 815 816 817 819 820 821 822 823 823 824 824 824 824 825 825 826 826 827 827 827 827 827 827 827 826 826 827 826 826 826 826 826 826 825 825 825 825 825 824 824 823 822
769 768 767 769 769 771 775 773 772 782 788 784 781 777 771 771 777 786 797 796 787 781 778 777 780 781 778 777 780 786 790 791 795 800 801 802 803 804 805 807 808 810 813 816 818 819 820 821 823 824 825 825 826 826 826 826 826 827 827 828 828 828 828 828 828 827 827 827 827 827 827 827 827 827 827 827 826 826 826 825 825 825 824 823 823 822
775 774 771 771 771 771 773 773 775 784 789 784 780 774 770 776 787 792 792 788 784 782 778 777 781 784 786 788 790 795 797 798 800 805 806 807 809 809 810 811 813 815 818 820 822 822 823 825 826 827 827 828 828 828 828 829 829 829 829 829 829 829 828 828 828 828 828 828 828 828 828 828 828 828 828 827 827 826 826 825 825 824 824 823 822 821
780 779 773 773 776 774 772 775 782 790 790 784 781 777 776 784 791 789 785 784 784 782 780 781 785 787 791 797 800 802 803 804 807 811 812 812 814 815 816 817 818 820 822 824 825 826 827 828 829 829 830 830 830 830 830 831 831 830 831 830 830 830 830 829 829 829 829 829 829 829 829 829 829 829 828 828 827 827 826 825 824 824 823 822 821 819
783 783 778 777 779 778 779 785 792 793 788 784 787 787 785 787 788 785 785 785 784 782 783 787 791 793 795 800 805 807 808 811 815 817 817 818 820 821 822 823 824 825 827 827 829 830 830 831 832 832 832 832 832 832 832 832 832 833 832 832 832 831 831 830 830 830 830 831 831 831 831 830 830 829 829 828 827 826 825 824 824 823 822 821 819 818
786 786 785 783 783 785 787 789 789 789 787 787 789 789 787 787 785 784 786 786 785 784 786 791 797 799 798 801 806 810 812 815 819 821 823 825 826 827 828 828 828 830 831 831 833 833 834 834 834 834 835 835 835 835 834 834 834 834 834 834 834 833 833 832 832 832 832 832 832 832 832 831 830 830 829 828 827 826 825 824 823 822 821 819 818 817
786 786 787 788 788 790 790 788 787 789 791 792 791 790 789 788 787 786 787 788 788 789 790 794 800 802 802 802 806 811 815 818 820 823 827 830 831 832 833 833 833 834 835 835 836 837 837 837 837 837 837 837 837 837 836 837 836 836 836 836 835 835 834 834 833 833 833 833 832 832 831 831 830 829 828 827 826 825 824 823 821 820 820 818 817 815
787 786 787 788 791 793 793 792 793 796 797 796 793 792 792 790 788 788 789 791 793 794 796 799 803 805 805 805 807 813 817 819 822 827 832 834 835 835 836 838 838 838 838 839 839 839 839 839 839 839 839 839 839 838 838 838 838 838 838 837 837 836 835 835 834 834 833 832 832 831 831 830 829 828 827 826 825 824 822 821 820 819 818 816 815 814
788 789 788 787 788 790 792 795 797 799 799 797 795 795 794 793 792 791 792 795 797 799 802 804 806 807 809 810 812 815 818 821 825 829 833 835 836 837 838 839 840 840 841 841 841 840 840 840 840 840 840 840 840 840 840 840 840 839 839 838 838 837 836 835 835 834 833 833 832 831 831 830 829 828 826 825 824 822 821 820 819 818 817 816 815 814
786 787 787 787 788 791 794 797 798 799 801 800 796 796 796 795 796 798 799 801 802 804 806 808 809 810 812 814 815 816 818 822 826 828 831 834 835 837 838 839 840 841 841 841 841 841 841 841 841 841 841 841 842 842 842 842 841 841 840 840 839 838 837 836 835 834 834 833 832 832 831 830 829 828 826 824 823 822 821 820 819 818 817 816 816 815
788 789 786 785 790 796 799 799 799 803 806 804 799 798 798 799 800 803 804 806 807 808 810 812 813 814 815 816 817 818 820 824 827 829 831 833 834 836 838 838 839 841 841 841 842 842 842 842 842 842 843 843 844 844 844 843 843 843 842 841 840 839 838 837 836 835 835 834 833 833 832 830 829 828 826 824 823 821 820 819 818 817 817 816 816 815
792 793 789 788 792 798 800 799 800 803 807 805 801 799 800 801 803 806 807 809 811 812 813 814 816 817 818 819 820 821 823 826 828 830 831 833 835 836 837 838 839 840 841 842 842 843 843 844 844 844 845 846 846 846 846 845 845 844 844 843 842 841 840 839 838 836 835 835 834 834 832 831 829 828 826 824 823 821 820 818 817 816 815 815 815 814